TimeCDT,TemperatureF,Dew PointF,Humidity,Sea Level PressureIn,VisibilityMPH,Wind Direction,Wind SpeedMPH,Gust SpeedMPH,PrecipitationIn,Events,Conditions,WindDirDegrees,DateUTC
12:42 AM,71.6,71.6,100,30.00,10.0,SW,4.6,-,N/A,,Scattered Clouds,220,2013-07-23 05:42:00
12:56 AM,70.9,70.9,100,30.04,10.0,SSW,5.8,-,N/A,,Clear,210,2013-07-23 05:56:00
1:12 AM,71.6,71.6,100,30.01,10.0,SSW,5.8,-,N/A,,Scattered Clouds,210,2013-07-23 06:12:00
1:21 AM,71.6,71.6,100,30.01,10.0,SSW,4.6,-,N/A,,Mostly Cloudy,210,2013-07-23 06:21:00
1:46 AM,71.6,71.6,100,30.01,10.0,Calm,Calm,-,N/A,,Overcast,0,2013-07-23 06:46:00
1:56 AM,70.9,70.9,100,30.04,10.0,SW,5.8,-,N/A,,Overcast,220,2013-07-23 06:56:00
2:23 AM,71.6,71.6,100,30.00,4.0,Calm,Calm,-,N/A,,Overcast,0,2013-07-23 07:23:00
2:56 AM,70.9,70.9,100,30.04,2.5,SW,5.8,-,N/A,,Overcast,220,2013-07-23 07:56:00
3:01 AM,71.6,71.6,100,30.00,1.2,SW,3.5,-,N/A,,Overcast,230,2013-07-23 08:01:00
3:05 AM,71.6,71.6,100,30.00,0.8,WSW,4.6,-,N/A,,Overcast,240,2013-07-23 08:05:00
3:56 AM,70.9,70.9,100,30.03,0.5,Variable,6.9,-,N/A,Fog,Fog,0,2013-07-23 08:56:00
4:11 AM,71.6,71.6,100,29.99,0.8,Variable,3.5,-,0.00,Rain-Thunderstorm,Rain,0,2013-07-23 09:11:00
4:21 AM,71.6,71.6,100,30.00,1.2,West,4.6,-,0.00,Rain-Thunderstorm,Light Thunderstorms and Rain,260,2013-07-23 09:21:00
4:29 AM,71.6,71.6,100,30.01,2.0,North,8.1,-,0.00,Thunderstorm,Overcast,360,2013-07-23 09:29:00
4:48 AM,71.6,71.6,100,30.00,3.0,North,3.5,-,0.01,Rain-Thunderstorm,Heavy Thunderstorms and Rain,360,2013-07-23 09:48:00
4:56 AM,70.9,70.9,100,30.03,10.0,Calm,Calm,-,0.01,Rain-Thunderstorm,Light Thunderstorms and Rain,0,2013-07-23 09:56:00
5:37 AM,71.6,71.6,100,29.97,10.0,SSW,5.8,-,0.00,,Clear,210,2013-07-23 10:37:00
5:56 AM,72.0,72.0,100,30.03,9.0,SSW,10.4,-,0.00,,Partly Cloudy,200,2013-07-23 10:56:00
6:56 AM,70.9,70.9,100,30.04,10.0,SSW,6.9,-,N/A,,Mostly Cloudy,200,2013-07-23 11:56:00
7:04 AM,71.6,71.6,100,30.00,10.0,SSW,6.9,-,N/A,,Mostly Cloudy,210,2013-07-23 12:04:00
7:13 AM,71.6,71.6,100,30.00,10.0,SSW,6.9,-,N/A,,Mostly Cloudy,210,2013-07-23 12:13:00
7:30 AM,73.4,71.6,94,30.00,10.0,SW,8.1,-,N/A,,Scattered Clouds,220,2013-07-23 12:30:00
7:56 AM,73.9,70.9,90,30.05,10.0,SW,8.1,-,N/A,,Scattered Clouds,220,2013-07-23 12:56:00
8:04 AM,73.4,71.6,94,30.02,10.0,SW,8.1,-,N/A,,Mostly Cloudy,220,2013-07-23 13:04:00
8:19 AM,75.2,71.6,89,30.02,10.0,SW,8.1,-,N/A,,Overcast,230,2013-07-23 13:19:00
8:56 AM,75.9,72.9,90,30.05,10.0,WSW,10.4,17.3,N/A,,Overcast,240,2013-07-23 13:56:00
9:17 AM,75.2,73.4,94,30.01,10.0,WSW,8.1,-,0.00,Rain-Thunderstorm,Light Thunderstorms and Rain,250,2013-07-23 14:17:00
9:56 AM,75.9,75.9,100,30.04,8.0,WSW,8.1,-,0.01,Thunderstorm,Thunderstorm,240,2013-07-23 14:56:00
9:58 AM,75.2,75.2,100,30.00,9.0,WSW,5.8,-,N/A,Thunderstorm,Thunderstorm,240,2013-07-23 14:58:00
10:10 AM,75.2,75.2,100,30.01,1.8,West,5.8,-,0.09,Rain-Thunderstorm,Light Thunderstorms and Rain,270,2013-07-23 15:10:00
10:15 AM,75.2,75.2,100,30.01,1.0,SW,5.8,-,0.11,Rain-Thunderstorm,Heavy Thunderstorms and Rain,230,2013-07-23 15:15:00
10:19 AM,75.2,75.2,100,30.00,1.5,WSW,5.8,-,0.11,Rain-Thunderstorm,Light Thunderstorms and Rain,250,2013-07-23 15:19:00
10:28 AM,75.2,75.2,100,30.02,1.0,NNW,8.1,-,0.18,Rain-Thunderstorm,Heavy Thunderstorms and Rain,340,2013-07-23 15:28:00
10:35 AM,73.4,73.4,100,30.01,1.5,NNW,9.2,-,0.18,Rain-Thunderstorm,Heavy Thunderstorms and Rain,340,2013-07-23 15:35:00
10:38 AM,73.4,71.6,94,30.02,4.0,NNW,11.5,-,0.18,Rain-Thunderstorm,Thunderstorms and Rain,330,2013-07-23 15:38:00
10:42 AM,71.6,71.6,100,30.00,1.2,North,20.7,25.3,0.25,Rain-Thunderstorm,Heavy Thunderstorms and Rain,350,2013-07-23 15:42:00
10:44 AM,71.6,69.8,94,29.99,0.5,North,18.4,25.3,0.32,Fog-Rain-Thunderstorm,Heavy Thunderstorms and Rain,360,2013-07-23 15:44:00
10:56 AM,68.9,68.9,100,30.06,0.5,NW,12.7,-,0.51,Fog-Rain-Thunderstorm,Heavy Thunderstorms and Rain,320,2013-07-23 15:56:00
11:09 AM,69.8,68.0,94,30.00,0.2,NNE,6.9,-,0.23,Fog-Rain-Thunderstorm,Heavy Thunderstorms and Rain,20,2013-07-23 16:09:00
11:14 AM,68.0,68.0,100,30.00,0.8,NNE,8.1,-,0.25,Rain-Thunderstorm,Heavy Thunderstorms and Rain,30,2013-07-23 16:14:00
11:25 AM,69.8,68.0,94,30.00,0.5,North,5.8,-,0.43,Fog-Rain-Thunderstorm,Heavy Thunderstorms and Rain,360,2013-07-23 16:25:00
11:35 AM,69.8,69.8,100,30.02,0.8,West,5.8,-,0.53,Rain-Thunderstorm,Heavy Thunderstorms and Rain,260,2013-07-23 16:35:00
11:41 AM,69.8,69.8,100,30.00,1.2,WSW,5.8,-,0.53,Rain-Thunderstorm,Thunderstorms and Rain,240,2013-07-23 16:41:00
11:43 AM,69.8,68.0,94,29.99,2.0,West,4.6,-,0.54,Rain-Thunderstorm,Thunderstorms and Rain,260,2013-07-23 16:43:00
11:56 AM,68.9,68.9,100,30.03,3.0,Calm,Calm,-,0.56,Rain-Thunderstorm,Thunderstorms and Rain,0,2013-07-23 16:56:00
12:10 PM,69.8,69.8,100,30.04,1.5,Variable,4.6,-,0.06,Rain-Thunderstorm,Heavy Thunderstorms and Rain,0,2013-07-23 17:10:00
12:12 PM,69.8,69.8,100,30.04,1.0,NNW,8.1,-,0.09,Rain-Thunderstorm,Heavy Thunderstorms and Rain,330,2013-07-23 17:12:00
12:15 PM,69.8,69.8,100,30.03,0.5,Variable,5.8,-,0.15,Fog-Rain-Thunderstorm,Heavy Thunderstorms and Rain,0,2013-07-23 17:15:00
12:24 PM,69.8,69.8,100,30.02,0.2,Calm,Calm,-,0.30,Fog-Rain-Thunderstorm,Heavy Thunderstorms and Rain,0,2013-07-23 17:24:00
12:28 PM,69.8,69.8,100,30.01,0.8,Calm,Calm,-,0.31,Rain-Thunderstorm,Heavy Thunderstorms and Rain,0,2013-07-23 17:28:00
12:30 PM,69.8,69.8,100,30.01,1.2,Calm,Calm,-,0.31,Rain-Thunderstorm,Heavy Thunderstorms and Rain,0,2013-07-23 17:30:00
12:34 PM,69.8,69.8,100,30.00,2.0,Calm,Calm,-,0.32,Rain-Thunderstorm,Rain,0,2013-07-23 17:34:00
12:38 PM,69.8,69.8,100,29.99,3.0,Calm,Calm,-,0.32,Rain,Heavy Rain,0,2013-07-23 17:38:00
12:56 PM,68.9,68.9,100,30.01,9.0,Calm,Calm,-,0.34,Rain,Light Rain,0,2013-07-23 17:56:00
1:05 PM,69.8,69.8,100,29.96,10.0,Calm,Calm,-,0.00,Rain,Light Rain,0,2013-07-23 18:05:00
1:48 PM,69.8,69.8,100,29.96,10.0,Calm,Calm,-,0.00,Rain,Light Rain,0,2013-07-23 18:48:00
1:56 PM,70.0,70.0,100,30.00,10.0,Calm,Calm,-,0.01,Rain,Light Rain,0,2013-07-23 18:56:00
2:44 PM,71.6,71.6,100,29.94,10.0,WSW,5.8,-,0.01,Rain,Light Rain,240,2013-07-23 19:44:00
2:56 PM,70.9,70.9,100,29.98,10.0,SW,6.9,-,0.01,,Partly Cloudy,230,2013-07-23 19:56:00
3:56 PM,72.9,70.0,91,29.98,10.0,Variable,5.8,-,0.00,,Mostly Cloudy,0,2013-07-23 20:56:00
4:56 PM,74.8,70.9,87,29.96,10.0,Calm,Calm,-,N/A,,Scattered Clouds,0,2013-07-23 21:56:00
5:05 PM,75.2,69.8,83,29.93,10.0,Calm,Calm,-,N/A,,Mostly Cloudy,0,2013-07-23 22:05:00
5:13 PM,75.2,69.8,83,29.93,10.0,Calm,Calm,-,N/A,,Partly Cloudy,0,2013-07-23 22:13:00
5:56 PM,74.8,70.9,87,29.97,10.0,Variable,4.6,-,N/A,,Clear,0,2013-07-23 22:56:00
6:04 PM,73.4,71.6,94,29.93,10.0,West,4.6,-,N/A,,Scattered Clouds,260,2013-07-23 23:04:00
6:22 PM,73.4,71.6,94,29.94,10.0,West,5.8,-,N/A,,Mostly Cloudy,260,2013-07-23 23:22:00
6:46 PM,73.4,69.8,88,29.93,10.0,WSW,5.8,-,N/A,,Partly Cloudy,250,2013-07-23 23:46:00
6:56 PM,73.9,70.0,87,29.97,10.0,WSW,5.8,-,N/A,,Partly Cloudy,240,2013-07-23 23:56:00
7:17 PM,73.4,69.8,88,29.93,10.0,WSW,5.8,-,N/A,,Mostly Cloudy,240,2013-07-24 00:17:00
7:56 PM,72.0,70.0,93,29.99,10.0,Calm,Calm,-,N/A,,Scattered Clouds,0,2013-07-24 00:56:00
8:56 PM,70.0,70.0,100,29.99,10.0,Calm,Calm,-,N/A,,Mostly Cloudy,0,2013-07-24 01:56:00
9:56 PM,68.9,68.9,100,29.99,10.0,Calm,Calm,-,N/A,,Clear,0,2013-07-24 02:56:00
10:56 PM,70.0,70.0,100,30.01,10.0,Calm,Calm,-,N/A,,Mostly Cloudy,0,2013-07-24 03:56:00
11:56 PM,68.0,68.0,100,29.99,1.8,Calm,Calm,-,N/A,,Clear,0,2013-07-24 04:56:00